{"data":{"norad_id":66942,"epoch":"2026-09-20T03:50:39.018912Z","epoch_age_seconds":111045,"freshness":"FRESH","line1":"1 66942U 25286T   26263.16017383  .00014397  00000+0  43629-3 0  9998","line2":"2 66942  53.1595 171.4283 0001169  89.7789 270.3347 15.34409312 45173","mean_motion":15.34409312,"eccentricity":0.0001169,"inclination_deg":53.1595,"raan_deg":171.4283,"arg_perigee_deg":89.7789,"mean_anomaly_deg":270.3347,"bstar":0.00043629,"rev_number":4517,"period_min":93.847188539481,"perigee_km":461.87587213203,"apogee_km":463.47525410929,"semimajor_km":6840.8125631207,"source":"CELESTRAK","updated_at":"2026-09-21T09:00:36.059311Z"}}